Weather reports worldwide

Advertisment
Gravesend, United Kingdom (3784): temperature & dewpoint: 18.06.2017 04:00:00 - 24.06.2017 04:00:00 (BST)Gravesend, United Kingdom (3784): temperature 5cm: 18.06.2017 04:00:00 - 24.06.2017 04:00:00 (BST)Gravesend, United Kingdom (3784): wind speed & gusts: 18.06.2017 04:00:00 - 24.06.2017 04:00:00 (BST)Gravesend, United Kingdom (3784): wind direction: 18.06.2017 04:00:00 - 24.06.2017 04:00:00 (BST)Gravesend, United Kingdom (3784): reduced air pressure: 18.06.2017 04:00:00 - 24.06.2017 04:00:00 (BST)Gravesend, United Kingdom (3784): visibility: 18.06.2017 04:00:00 - 24.06.2017 04:00:00 (BST)Gravesend, United Kingdom (3784): precipitation: 18.06.2017 04:00:00 - 24.06.2017 04:00:00 (BST)
Date & Time tt [°C] td [°C] tt 5cm [°C] ff [km/h] ff [kn] fx [km/h] fx [kn] dd ppp [hPa] vv [km] rr [mm]
24.06.2017 04:00:00 16,9 13,8 - 16 9 - - SW 1014,2 - -
24.06.2017 03:00:00 16,4 13,5 - 16 9 - - SW 1014,5 - -
24.06.2017 02:00:00 16,8 13,5 - 18 10 - - SW 1014,9 - -
24.06.2017 01:00:00 16,9 13,9 - 16 9 - - SW 1015,2 - -
24.06.2017 00:00:00 17,0 13,7 - 15 8 - - SSW 1015,4 - -
23.06.2017 23:00:00 17,8 14,0 - 16 9 - - SW 1015,7 - -
23.06.2017 22:00:00 18,4 13,4 - 16 9 - - SW 1015,8 - -
23.06.2017 21:00:00 19,3 13,2 - 21 11 - - SSW 1015,9 - -
23.06.2017 20:00:00 19,9 13,1 - 24 13 - - SSW 1015,8 - -
23.06.2017 19:00:00 21,5 13,5 - 24 13 - - SW 1015,5 - -
23.06.2017 18:00:00 21,9 12,9 - 24 13 46 25 WSW 1015,7 - -
23.06.2017 17:00:00 22,8 12,9 - 26 14 - - WSW 1015,4 - -
23.06.2017 16:00:00 22,7 12,9 - 26 14 - - WSW 1015,4 - -
23.06.2017 15:00:00 23,1 13,5 - 22 12 - - WSW 1015,6 - -
23.06.2017 14:00:00 22,9 11,5 - 24 13 - - SW 1015,5 - -
23.06.2017 13:00:00 22,7 12,7 - 24 13 - - WSW 1015,6 - -
23.06.2017 12:00:00 21,0 12,1 - 22 12 - - WSW 1016,0 - -
23.06.2017 11:00:00 20,0 11,5 - 21 11 - - WSW 1016,3 - -
23.06.2017 10:00:00 18,7 11,8 - 21 11 - - W 1016,3 - -
23.06.2017 09:00:00 17,8 11,4 - 24 13 - - WSW 1016,1 - -
23.06.2017 08:00:00 16,5 11,7 - 26 14 - - WSW 1015,5 - -
23.06.2017 07:00:00 14,7 11,3 - 26 14 - - WSW 1015,4 - -
23.06.2017 06:00:00 14,3 11,9 - 16 9 - - WSW 1015,2 - -
23.06.2017 05:00:00 14,4 11,8 - 21 11 - - WSW 1015,0 - -
23.06.2017 04:00:00 15,1 12,0 - 21 11 - - WSW 1014,8 - -
23.06.2017 03:00:00 15,9 13,0 - 13 7 - - SW 1014,4 - -
23.06.2017 02:00:00 17,2 14,3 - 18 10 - - SW 1014,4 - -
23.06.2017 01:00:00 17,7 14,2 - 11 6 - - SW 1014,0 - -
23.06.2017 00:00:00 19,2 14,9 - 21 11 - - WSW 1014,0 - -
22.06.2017 23:00:00 19,6 14,5 - 16 9 - - WSW 1013,9 - -
22.06.2017 22:00:00 20,4 14,2 - 13 7 - - SW 1013,2 0,3 -
22.06.2017 21:00:00 21,5 15,5 - 15 8 - - WSW 1012,6 - -
22.06.2017 20:00:00 22,2 14,5 - 21 11 - - W 1012,6 - -
22.06.2017 19:00:00 22,4 15,2 - 18 10 - - W 1012,2 - -
22.06.2017 18:00:00 22,4 14,8 - 24 13 - - W 1011,9 - -
22.06.2017 17:00:00 22,2 14,9 - 24 13 - - W 1011,6 - -
22.06.2017 16:00:00 22,7 14,7 - 24 13 - - W 1011,1 - -
22.06.2017 15:00:00 22,9 13,9 - 26 14 46 25 W 1011,0 - -
22.06.2017 14:00:00 23,6 15,3 - 29 16 - - WSW 1010,7 - -
22.06.2017 13:00:00 22,3 15,1 - 28 15 - - WSW 1010,6 - -
22.06.2017 12:00:00 21,2 16,5 - 16 9 - - SW 1010,6 - -
22.06.2017 11:00:00 19,8 16,3 - 26 14 - - WSW 1010,9 - -
22.06.2017 10:00:00 22,2 16,7 - 18 10 - - W 1010,3 - -
22.06.2017 09:00:00 21,7 15,9 - 24 13 - - W 1010,8 - -
22.06.2017 08:00:00 21,9 15,5 - 22 12 - - WSW 1010,2 - -
22.06.2017 07:00:00 20,4 16,7 - 8 4 - - SSW 1010,0 - -
22.06.2017 06:00:00 18,3 16,0 - 5 3 - - S 1010,0 - -
22.06.2017 05:00:00 17,6 16,5 - 8 4 - - S 1010,1 - -
22.06.2017 04:00:00 17,8 16,0 - 5 3 - - S 1010,2 - -
22.06.2017 03:00:00 19,1 17,1 - 8 4 - - SSW 1010,7 - -
22.06.2017 02:00:00 19,0 17,7 - 8 4 - - SW 1011,0 - -
22.06.2017 01:00:00 19,3 16,1 - 0 0 - - N 1011,1 - -
22.06.2017 00:00:00 20,3 17,6 - 5 3 - - SSW 1011,4 - -
21.06.2017 23:00:00 19,4 17,7 - 4 2 - - SSE 1011,6 - -
21.06.2017 22:00:00 20,2 18,0 - 8 4 - - E 1011,7 0,3 -
21.06.2017 21:00:00 22,3 18,4 - 8 4 - - E 1011,6 - -
21.06.2017 20:00:00 24,7 18,5 - 11 6 - - ENE 1011,6 - -
21.06.2017 19:00:00 25,7 19,2 - 15 8 - - E 1011,9 - -
21.06.2017 18:00:00 26,7 19,3 - 15 8 - - ENE 1012,1 - -
21.06.2017 17:00:00 27,3 19,5 - 18 10 - - E 1012,5 - -
21.06.2017 16:00:00 28,0 18,8 - 18 10 - - ENE 1013,1 - -
21.06.2017 15:00:00 28,8 18,9 - 15 8 - - ENE 1013,7 - -
21.06.2017 14:00:00 27,9 19,1 - 15 8 - - E 1014,3 - -
21.06.2017 13:00:00 25,7 18,8 - 15 8 - - ENE 1014,9 - -
21.06.2017 12:00:00 23,9 17,4 - 18 10 - - ENE 1015,3 - -
21.06.2017 11:00:00 23,2 17,4 - 16 9 - - ENE 1015,5 - -
21.06.2017 10:00:00 22,0 17,1 22,1 18 10 - - ENE 1016,0 - 1,5
21.06.2017 09:00:00 20,9 16,8 - 21 11 - - ENE 1016,3 - -
21.06.2017 08:00:00 19,8 16,6 - 21 11 - - E 1016,4 - -
21.06.2017 07:00:00 18,8 16,8 - 15 8 - - ENE 1016,6 - -
21.06.2017 06:00:00 16,7 15,7 - 11 6 - - ENE 1016,4 - -
21.06.2017 05:00:00 15,9 15,1 - 11 6 - - NE 1016,7 - -
21.06.2017 04:00:00 15,6 14,8 - 11 6 - - NE 1017,0 - -
21.06.2017 03:00:00 15,7 14,9 - 9 5 - - NE 1017,4 - -
21.06.2017 02:00:00 15,7 14,7 - 9 5 - - NE 1017,8 - -
21.06.2017 01:00:00 16,1 14,8 - 11 6 - - NNE 1018,4 - -
21.06.2017 00:00:00 16,4 15,2 - 13 7 - - ENE 1018,5 - -
20.06.2017 23:00:00 17,2 15,7 - 16 9 - - ENE 1018,3 - -
20.06.2017 22:00:00 17,9 16,4 - 15 8 - - ENE 1018,4 - -
20.06.2017 21:00:00 18,6 16,5 - 15 8 - - E 1018,3 - -
20.06.2017 20:00:00 20,1 16,5 - 22 12 - - E 1017,9 - -
20.06.2017 19:00:00 21,5 16,5 - 26 14 - - E 1017,8 - -
20.06.2017 18:00:00 23,4 16,4 - 24 13 - - E 1017,7 - -
20.06.2017 17:00:00 25,2 16,6 - 22 12 - - E 1017,9 - -
20.06.2017 16:00:00 27,3 17,0 - 21 11 - - E 1018,0 - -
20.06.2017 15:00:00 28,2 17,3 - 15 8 - - ENE 1018,0 - -
20.06.2017 14:00:00 26,4 17,3 - 16 9 - - ENE 1017,9 - -
20.06.2017 13:00:00 27,0 17,2 - 15 8 - - ENE 1018,1 - -
20.06.2017 12:00:00 26,2 18,1 - 11 6 - - ENE 1018,5 - -
20.06.2017 11:00:00 23,3 16,8 - 11 6 - - ENE 1018,3 - -
20.06.2017 10:00:00 23,6 18,2 23,6 9 5 - - ESE 1018,4 - 1,2
20.06.2017 09:00:00 22,2 17,4 - 9 5 - - E 1018,2 - -
20.06.2017 08:00:00 20,6 18,0 - 2 1 - - NE 1018,0 - -
20.06.2017 07:00:00 16,4 16,3 - 2 1 - - S 1017,8 - -
20.06.2017 06:00:00 14,0 13,7 - 2 1 - - S 1017,5 - -
20.06.2017 05:00:00 13,1 12,5 - 4 2 - - SSE 1017,2 - -
20.06.2017 04:00:00 13,1 12,2 - 4 2 - - SE 1017,1 - -
20.06.2017 03:00:00 14,3 13,2 - 5 3 - - SSE 1017,2 - -
20.06.2017 02:00:00 15,2 13,3 - 2 1 - - E 1017,6 - -
20.06.2017 01:00:00 17,8 16,7 - 9 5 - - E 1017,7 - -
20.06.2017 00:00:00 17,7 15,4 - 5 3 - - NE 1017,9 - -
19.06.2017 23:00:00 19,4 15,8 - 8 4 - - E 1017,7 - -
19.06.2017 22:00:00 21,0 15,9 - 9 5 - - E 1017,8 - -
19.06.2017 21:00:00 22,3 15,9 - 8 4 - - E 1017,4 - -
19.06.2017 20:00:00 24,7 15,6 - 13 7 - - ENE 1017,4 - -
19.06.2017 19:00:00 26,5 16,1 - 15 8 - - ENE 1017,4 - -
19.06.2017 18:00:00 27,8 16,3 - 15 8 - - ENE 1017,3 - -
19.06.2017 17:00:00 28,9 17,0 - 13 7 - - ENE 1017,6 - -
19.06.2017 16:00:00 29,0 17,1 - 16 9 - - ENE 1017,9 - -
19.06.2017 15:00:00 29,9 17,5 - 13 7 - - ENE 1018,1 - -
19.06.2017 14:00:00 29,0 16,2 - 9 5 - - ENE 1018,6 - -
19.06.2017 13:00:00 28,7 17,3 - 13 7 - - ENE 1019,1 - -
19.06.2017 12:00:00 28,1 17,2 - 8 4 - - E 1019,5 - -
19.06.2017 11:00:00 27,6 17,4 - 9 5 - - E 1019,6 - -
19.06.2017 10:00:00 25,5 17,4 25,5 8 4 - - ESE 1019,9 - 1,4
19.06.2017 09:00:00 23,6 17,0 - 8 4 - - ESE 1020,0 - -
19.06.2017 08:00:00 22,1 17,5 - 5 3 - - ESE 1020,3 - -
19.06.2017 07:00:00 19,4 17,4 - 4 2 - - ENE 1020,4 - -
19.06.2017 06:00:00 15,0 14,5 - 0 0 - - N 1020,5 - -
19.06.2017 05:00:00 15,1 14,0 - 4 2 - - E 1020,6 - -
19.06.2017 04:00:00 16,5 15,8 - 8 4 - - E 1020,7 - -
19.06.2017 03:00:00 15,8 15,0 - 5 3 - - E 1021,0 - -
19.06.2017 02:00:00 16,6 15,8 - 5 3 - - E 1021,2 - -
19.06.2017 01:00:00 16,7 15,0 - 4 2 - - ENE 1021,6 - -
19.06.2017 00:00:00 18,2 15,8 - 4 2 - - SE 1021,6 - -
18.06.2017 23:00:00 18,6 15,3 - 4 2 - - SSE 1021,7 - -
18.06.2017 22:00:00 21,0 16,0 - 8 4 - - SSE 1021,4 - -
18.06.2017 21:00:00 24,1 16,5 - 9 5 - - SSE 1021,1 - -
18.06.2017 20:00:00 26,7 16,9 - 13 7 - - E 1021,0 - -
18.06.2017 19:00:00 28,5 15,7 - 13 7 - - E 1021,1 - -
18.06.2017 18:00:00 29,7 16,4 - 15 8 - - E 1021,3 - -
18.06.2017 17:00:00 30,8 16,7 - 11 6 - - E 1021,4 - -
18.06.2017 16:00:00 30,6 16,4 - 9 5 - - ESE 1021,7 - -
18.06.2017 15:00:00 30,7 15,9 - 9 5 - - ESE 1022,1 - -
18.06.2017 14:00:00 29,2 15,8 - 5 3 - - W 1022,6 - -
18.06.2017 13:00:00 28,9 16,1 - 4 2 - - SW 1023,2 - -
18.06.2017 12:00:00 29,1 17,7 - 5 3 - - W 1023,7 - -
18.06.2017 11:00:00 26,8 16,6 - 5 3 - - W 1024,0 - -
18.06.2017 10:00:00 25,7 16,6 26,0 8 4 - - W 1024,4 - 1,4
18.06.2017 09:00:00 23,2 16,0 - 5 3 - - W 1024,5 - -
18.06.2017 08:00:00 21,6 15,6 - 5 3 - - W 1024,7 - -
18.06.2017 07:00:00 19,8 15,9 - 4 2 - - WSW 1024,6 - -
18.06.2017 06:00:00 15,6 15,0 - 4 2 - - W 1024,5 - -
18.06.2017 05:00:00 14,4 13,3 - 5 3 - - S 1024,4 - -
18.06.2017 04:00:00 15,1 13,8 - 5 3 - - SSW 1024,4 - -

tt = temperature
td = dewpoint
tt 5cm = temperature 5cm
ff = wind speed
fx = gusts
dd = wind direction
ppp = reduced air pressure
vv = visibility
rr = precipitation

Next stations